New York JFK, NY

11:12 PM EDT on October 20, 2019 (GMT -0400)
Kennedy International

Weather History for KJFK - September, 2019

Change the Weather History Date:

Wednesday, September 18, 2019

  Actual Average Record
Temperature  
Mean Temperature 63 °F 67 °F  
Max Temperature 71 °F 75 °F 90 °F (1965)
Min Temperature 55 °F 60 °F 46 °F (1961)
Degree Days  
Heating Degree Days 2 1  
Month to date heating degree days 5 8  
Since 1 July heating degree days 5 9  
Cooling Degree Days 0 4  
Month to date cooling degree days 96 103  
Year to date cooling degree days 1076 964  
Growing Degree Days 13 (Base 50)    
Moisture  
Dew Point 52 °F    
Average Humidity 72    
Maximum Humidity 96    
Minimum Humidity 47    
Precipitation  
Precipitation 0.00 in 0.13 in 1.58 in (2012)
Month to date precipitation 1.10 1.98  
Year to date precipitation 37.75 30.94  
Snow  
Snow 0.00 in 0.00 in - ()
Month to date snowfall 0.0 0.0  
Since 1 July snowfall 0.0 0.0  
Snow Depth 0.00 in    
Sea Level Pressure  
Sea Level Pressure 30.24 in    
Wind  
Wind Speed 7 mph ()    
Max Wind Speed 18 mph    
Max Gust Speed 23 mph    
Visibility 10.0 miles    
Events      
T = Trace of Precipitation, MM = Missing Value Source: Averaged Metar Reports

Daily Weather History Graph

Daily Weather History Graph

Search for Another Location

Airport or City:

Astronomy

Sep. 18, 2019 Rise Set
Actual Time 6:38 AM EDT 6:59 PM EDT
Civil Twilight 6:11 AM EDT 7:26 PM EDT
Nautical Twilight 5:38 AM EDT 7:58 PM EDT
Astronomical Twilight 5:05 AM EDT 8:31 PM EDT
Moon 9:30 PM EDT (9/18) 10:40 AM EDT (9/18)
Length of Visible Light 13h 15m
Length of Day
12h 20m
Waning Gibbous, 82% of the Moon is Illuminated
Sep 18
Waning Gibbous
Sep 21
Last Quarter
Sep 28
New
Oct 5
First Quarter
Oct 13
Full

Hourly Weather History & Observations

Time (EDT) Temp. Dew Point Humidity Pressure Visibility Wind Dir Wind Speed Gust Speed Precip Events Conditions
12:51 AM 59.0 °F 55.9 °F 90% 30.17 in 10.0 mi NE 4.6 mph - N/A   Clear
1:51 AM 60.1 °F 55.0 °F 83% 30.17 in 10.0 mi NNE 6.9 mph - N/A   Clear
2:51 AM 57.9 °F 55.0 °F 90% 30.17 in 10.0 mi NNE 5.8 mph - N/A   Clear
3:51 AM 57.0 °F 55.9 °F 96% 30.18 in 10.0 mi NE 3.5 mph - N/A   Partly Cloudy
4:51 AM 57.9 °F 55.9 °F 93% 30.18 in 10.0 mi North 4.6 mph - N/A   Partly Cloudy
5:12 AM 57.9 °F 55.9 °F 93% 30.18 in 10.0 mi NNE 4.6 mph - N/A   Mostly Cloudy
5:39 AM 57.9 °F 55.9 °F 93% 30.19 in 10.0 mi NNE 5.8 mph - N/A   Scattered Clouds
5:51 AM 57.0 °F 55.0 °F 93% 30.19 in 10.0 mi NE 6.9 mph - N/A   Scattered Clouds
6:51 AM 57.9 °F 55.0 °F 90% 30.22 in 10.0 mi NE 5.8 mph - N/A   Mostly Cloudy
7:51 AM 61.0 °F 57.9 °F 90% 30.24 in 10.0 mi NNE 8.1 mph - N/A   Mostly Cloudy
8:51 AM 63.0 °F 55.9 °F 78% 30.24 in 10.0 mi NNE 9.2 mph - N/A   Mostly Cloudy
9:51 AM 64.9 °F 55.0 °F 70% 30.26 in 10.0 mi NNE 15.0 mph - N/A   Mostly Cloudy
10:51 AM 66.0 °F 54.0 °F 65% 30.26 in 10.0 mi NNE 12.7 mph - N/A   Mostly Cloudy
11:51 AM 66.9 °F 52.0 °F 59% 30.25 in 10.0 mi NNE 13.8 mph - N/A   Mostly Cloudy
12:51 PM 66.0 °F 50.0 °F 56% 30.25 in 10.0 mi NNE 12.7 mph - N/A   Mostly Cloudy
1:51 PM 68.0 °F 48.9 °F 50% 30.24 in 10.0 mi NNE 11.5 mph 21.9 mph N/A   Mostly Cloudy
2:51 PM 69.1 °F 50.0 °F 51% 30.24 in 10.0 mi NE 11.5 mph 18.4 mph N/A   Mostly Cloudy
3:51 PM 69.1 °F 48.0 °F 47% 30.25 in 10.0 mi NE 10.4 mph 21.9 mph N/A   Scattered Clouds
4:51 PM 68.0 °F 48.0 °F 49% 30.25 in 10.0 mi ENE 15.0 mph - N/A   Partly Cloudy
5:51 PM 66.9 °F 46.0 °F 47% 30.26 in 10.0 mi NE 13.8 mph - N/A   Partly Cloudy
6:51 PM 63.0 °F 46.0 °F 54% 30.26 in 10.0 mi ENE 13.8 mph - N/A   Partly Cloudy
7:51 PM 60.1 °F 46.0 °F 60% 30.27 in 10.0 mi East 6.9 mph - N/A   Partly Cloudy
8:51 PM 59.0 °F 46.0 °F 62% 30.29 in 10.0 mi East 9.2 mph - N/A   Partly Cloudy
9:51 PM 57.0 °F 46.0 °F 67% 30.31 in 10.0 mi NE 5.8 mph - N/A   Partly Cloudy
10:51 PM 55.9 °F 46.0 °F 69% 30.32 in 10.0 mi ENE 6.9 mph - N/A   Partly Cloudy
11:51 PM 55.9 °F 46.0 °F 69% 30.33 in 10.0 mi ENE 9.2 mph - N/A   Partly Cloudy